Waarnemingen

Advertentie
Mijn weer
Benavente, Spanje (8056): temperatuur & dauwpunt: 13.11.2017 18:00:00 - 19.11.2017 18:00:00 (CET)Benavente, Spanje (8056): windsnelheid & windstoten: 13.11.2017 18:00:00 - 19.11.2017 18:00:00 (CET)Benavente, Spanje (8056): windrichting: 13.11.2017 18:00:00 - 19.11.2017 18:00:00 (CET)Benavente, Spanje (8056): luchtdruk: 13.11.2017 18:00:00 - 19.11.2017 18:00:00 (CET)Benavente, Spanje (8056): zicht: 13.11.2017 18:00:00 - 19.11.2017 18:00:00 (CET)Benavente, Spanje (8056): Zonneschijnduur: 13.11.2017 18:00:00 - 19.11.2017 18:00:00 (CET)Benavente, Spanje (8056): neerslag: 13.11.2017 18:00:00 - 19.11.2017 18:00:00 (CET)
Datum & Tijd tt [°C] td [°C] ff [km/u] ff [kn] fx [km/u] fx [kn] dd ppp [hPa] vv [km] sd [min] rr [mm]
19.11.2017 18:00:00 11,3 -8,2 1 1 6 3 NNO 1023,0 20 29 0,0
19.11.2017 17:00:00 16,0 -12,2 3 2 9 5 O 1021,3 20 60 0,0
19.11.2017 16:00:00 16,3 -9,4 4 2 8 4 N 1021,2 20 60 0,0
19.11.2017 15:00:00 15,5 -8,6 4 2 13 7 ZZW 1021,7 20 60 0,0
19.11.2017 14:00:00 14,1 -9,9 3 2 10 5 O 1022,5 20 60 0,0
19.11.2017 13:00:00 11,7 -3,6 4 2 10 5 NNO 1023,9 20 60 -
19.11.2017 12:00:00 9,8 -1,7 2 1 8 4 NNO 1025,3 20 60 0,0
19.11.2017 11:00:00 6,7 0,0 3 2 14 8 NNO 1026,1 20 60 0,0
19.11.2017 10:00:00 3,2 -0,7 6 4 11 6 N 1027,1 20 38 0,0
19.11.2017 09:00:00 -1,5 -3,0 1 1 5 3 NNW 1027,9 20 0 0,0
19.11.2017 08:00:00 -1,7 -3,9 0 0 8 4 N 1027,6 20 0 0,0
19.11.2017 07:00:00 -1,6 -3,6 4 2 8 4 N 1027,2 20 0 -
19.11.2017 06:00:00 0,6 -2,0 4 2 12 6 NNW 1026,2 20 0 0,0
19.11.2017 05:00:00 1,1 -1,7 6 4 11 6 NW 1026,1 20 0 0,0
19.11.2017 04:00:00 1,2 -1,7 4 2 12 7 NNW 1026,2 20 0 0,0
19.11.2017 03:00:00 1,8 -1,2 7 4 11 6 NW 1025,9 20 0 0,0
19.11.2017 02:00:00 2,5 -0,5 1 1 12 7 NW 1025,6 20 0 0,0
19.11.2017 01:00:00 4,0 1,3 7 4 12 7 NNW 1025,3 20 0 -
19.11.2017 00:00:00 4,6 1,1 4 2 9 5 N 1025,0 20 0 0,0
18.11.2017 23:00:00 6,6 1,9 4 2 13 7 O 1024,5 20 0 0,0
18.11.2017 22:00:00 7,0 1,1 6 3 13 7 NNO 1024,2 20 0 0,0
18.11.2017 21:00:00 7,4 1,1 6 3 11 6 NO 1023,9 20 0 0,0
18.11.2017 20:00:00 7,0 0,9 3 1 6 3 ONO 1023,5 20 0 0,0
18.11.2017 19:00:00 8,8 1,3 1 1 3 1 ZZW 1022,4 20 0 -
18.11.2017 18:00:00 13,1 1,7 1 1 8 4 NNW 1020,8 20 30 0,0
18.11.2017 17:00:00 16,8 0,9 4 2 11 6 O 1019,5 20 58 0,0
18.11.2017 16:00:00 16,7 1,5 5 3 14 8 O 1019,3 20 60 0,0
18.11.2017 15:00:00 16,3 1,9 6 3 22 12 ONO 1019,8 20 60 0,0
18.11.2017 14:00:00 15,0 1,9 10 5 22 12 NO 1021,0 20 60 0,0
18.11.2017 13:00:00 13,2 3,0 7 4 19 10 NNO 1022,2 20 60 -
18.11.2017 12:00:00 11,2 1,9 8 4 18 10 NNO 1023,6 20 60 0,0
18.11.2017 11:00:00 8,3 0,9 6 4 13 7 NNW 1024,6 20 60 0,0
18.11.2017 10:00:00 4,5 0,2 3 1 5 3 ONO 1025,7 20 39 0,0
18.11.2017 09:00:00 1,0 -1,4 1 1 5 3 N 1026,5 20 0 0,0
18.11.2017 08:00:00 1,2 -1,4 2 1 11 6 NNW 1025,8 20 0 0,0
18.11.2017 07:00:00 1,4 -1,2 6 3 11 6 NNW 1025,5 20 0 -
18.11.2017 06:00:00 0,8 -1,4 5 3 9 5 N 1025,6 20 0 0,0
18.11.2017 05:00:00 1,5 -1,0 2 1 5 3 NNO 1025,4 20 0 0,0
18.11.2017 04:00:00 2,1 -1,2 2 1 9 5 N 1025,5 20 0 0,0
18.11.2017 03:00:00 3,4 -0,7 1 1 8 4 N 1025,1 20 0 0,0
18.11.2017 02:00:00 3,5 -0,3 2 1 16 9 N 1025,0 20 0 0,0
18.11.2017 01:00:00 4,6 -0,3 1 1 8 5 N 1024,9 20 0 -
18.11.2017 00:00:00 6,2 0,0 5 3 8 4 NNW 1024,1 20 0 0,0
17.11.2017 23:00:00 6,5 -0,5 4 2 6 4 NNW 1024,1 20 0 0,0
17.11.2017 22:00:00 7,5 0,0 4 2 18 10 N 1023,3 20 0 0,0
17.11.2017 21:00:00 7,8 1,1 4 2 18 10 NO 1023,2 14 0 0,0
17.11.2017 20:00:00 9,2 0,6 1 1 5 3 OZO 1022,1 20 0 0,0
17.11.2017 19:00:00 10,2 0,4 0 0 4 2 N 1021,5 20 0 -
17.11.2017 18:00:00 13,4 1,1 1 1 2 1 WNW 1020,2 20 6 0,0
17.11.2017 17:00:00 16,8 0,4 1 1 6 3 NW 1019,0 20 25 0,0
17.11.2017 16:00:00 17,3 -0,5 4 2 13 7 NNO 1019,0 20 60 0,0
17.11.2017 15:00:00 17,1 -0,7 4 2 10 5 NNW 1019,5 20 60 0,0
17.11.2017 14:00:00 15,9 -0,7 3 2 12 6 ONO 1020,4 20 60 0,0
17.11.2017 13:00:00 14,9 -0,5 5 3 15 8 NO 1021,5 20 60 -
17.11.2017 12:00:00 12,8 1,5 7 4 12 7 NNO 1023,0 20 60 0,0
17.11.2017 11:00:00 9,8 0,6 5 3 12 7 N 1023,9 20 60 0,0
17.11.2017 10:00:00 6,5 0,0 7 4 11 6 N 1025,0 20 41 0,0
17.11.2017 09:00:00 3,4 -1,2 8 4 14 7 N 1025,7 20 0 0,0
17.11.2017 08:00:00 2,7 -1,4 4 2 10 5 N 1025,5 20 0 0,0
17.11.2017 07:00:00 3,3 -1,2 5 3 15 8 NNW 1025,0 20 0 -
17.11.2017 06:00:00 3,3 -1,2 6 3 14 8 NNW 1025,0 20 0 0,0
17.11.2017 05:00:00 4,0 -0,7 7 4 12 7 NNW 1024,7 20 0 0,0
17.11.2017 04:00:00 4,1 -0,7 6 4 13 7 N 1024,9 20 0 0,0
17.11.2017 03:00:00 3,5 -0,7 5 3 11 6 N 1025,2 20 0 0,0
17.11.2017 02:00:00 3,3 -1,0 4 2 9 5 N 1025,2 20 0 0,0
17.11.2017 01:00:00 3,6 -0,7 6 3 8 4 N 1025,2 20 0 -
17.11.2017 00:00:00 5,5 -0,3 4 2 9 5 NNW 1024,5 20 0 0,0
16.11.2017 23:00:00 5,2 -1,0 3 1 11 6 N 1024,5 15 0 0,0
16.11.2017 22:00:00 4,9 -1,4 3 1 5 3 N 1024,2 20 0 0,0
16.11.2017 21:00:00 5,7 -1,4 3 1 4 2 NO 1023,8 20 0 0,0
16.11.2017 20:00:00 7,1 -1,4 0 0 4 2 N 1022,9 20 0 0,0
16.11.2017 19:00:00 9,3 -1,2 2 1 4 2 WZW 1021,9 20 0 -
16.11.2017 18:00:00 14,3 -1,4 1 1 6 4 Z 1020,0 20 32 0,0
16.11.2017 17:00:00 16,9 -2,7 2 1 8 5 O 1019,1 20 60 0,0
16.11.2017 16:00:00 17,0 -2,7 3 2 9 5 O 1019,1 20 60 0,0
16.11.2017 15:00:00 16,1 -3,0 4 2 10 5 O 1019,6 20 60 0,0
16.11.2017 14:00:00 14,9 -2,2 3 2 10 5 ZZW 1020,3 20 60 0,0
16.11.2017 13:00:00 12,5 -1,4 3 1 8 4 OZO 1021,8 20 60 -
16.11.2017 12:00:00 10,4 -0,3 3 1 8 4 NO 1023,0 20 60 0,0
16.11.2017 11:00:00 7,8 0,4 2 1 7 4 NO 1024,0 20 60 0,0
16.11.2017 10:00:00 4,2 0,0 1 1 5 3 NNW 1024,7 20 43 0,0
16.11.2017 09:00:00 0,4 -1,7 3 2 6 4 NNO 1025,2 20 0 0,0
16.11.2017 08:00:00 -1,0 -2,7 3 1 4 2 N 1025,2 20 0 0,0
16.11.2017 07:00:00 -0,6 -2,7 2 1 5 3 ONO 1024,8 20 0 -
16.11.2017 06:00:00 -0,4 -2,7 2 1 13 7 N 1024,3 20 0 0,0
16.11.2017 05:00:00 0,1 -3,0 2 1 6 3 NO 1024,1 20 0 0,0
16.11.2017 04:00:00 0,6 -2,7 0 0 5 3 N 1023,7 20 0 0,0
16.11.2017 03:00:00 0,7 -2,7 0 0 4 2 N 1023,9 20 0 0,0
16.11.2017 02:00:00 1,3 -2,7 3 2 7 4 NNO 1023,8 20 0 0,0
16.11.2017 01:00:00 1,7 -3,3 1 1 5 3 NO 1023,8 20 0 -
16.11.2017 00:00:00 2,1 -3,6 2 1 5 3 NNW 1023,7 20 0 0,0
15.11.2017 23:00:00 2,5 -3,6 4 2 5 3 N 1023,3 20 0 0,0
15.11.2017 22:00:00 3,3 -3,9 0 0 4 2 N 1023,1 20 0 0,0
15.11.2017 21:00:00 4,1 -3,6 0 0 5 3 N 1022,6 20 0 0,0
15.11.2017 20:00:00 5,5 -4,2 3 2 5 3 ZZW 1021,7 20 0 0,0
15.11.2017 19:00:00 8,1 -4,5 3 2 6 4 Z 1020,6 20 0 -
15.11.2017 18:00:00 12,3 -6,0 3 2 11 6 ZZW 1019,0 20 32 0,0
15.11.2017 17:00:00 15,5 -8,2 4 2 11 6 Z 1018,1 20 59 0,0
15.11.2017 16:00:00 15,6 -7,5 4 2 11 6 ZZO 1018,0 20 60 0,0
15.11.2017 15:00:00 14,5 -7,5 4 2 9 5 ZZO 1018,6 20 60 0,0
15.11.2017 14:00:00 13,2 -6,4 3 1 9 5 Z 1019,7 20 60 0,0
15.11.2017 13:00:00 11,6 -3,0 4 2 9 5 ZZO 1020,6 20 60 -
15.11.2017 12:00:00 9,5 -1,0 3 2 8 5 Z 1022,2 20 60 0,0
15.11.2017 11:00:00 6,5 0,2 2 1 6 3 ZZW 1023,4 20 60 0,0
15.11.2017 10:00:00 3,0 -0,7 1 1 6 3 N 1024,7 20 44 0,0
15.11.2017 09:00:00 0,8 -2,0 3 2 13 7 OZO 1025,0 20 0 0,0
15.11.2017 08:00:00 0,5 -2,0 7 4 17 9 N 1024,5 20 0 0,0
15.11.2017 07:00:00 0,0 -2,2 6 4 14 8 NW 1024,6 20 0 -
15.11.2017 06:00:00 0,3 -2,0 6 3 14 8 NNW 1024,4 20 0 0,0
15.11.2017 05:00:00 0,6 -2,2 3 2 8 5 NNW 1024,5 20 0 0,0
15.11.2017 04:00:00 0,9 -2,2 3 2 12 7 N 1024,5 20 0 0,0
15.11.2017 03:00:00 0,6 -3,0 6 3 10 5 NNW 1025,0 20 0 0,0
15.11.2017 02:00:00 2,0 -3,0 1 1 15 8 N 1024,1 20 0 0,0
15.11.2017 01:00:00 2,9 -2,0 7 4 15 8 NNW 1024,4 20 0 -
15.11.2017 00:00:00 3,0 -2,2 5 3 8 5 NNW 1024,5 20 0 0,0
14.11.2017 23:00:00 3,2 -2,5 4 2 9 5 NNW 1024,7 20 0 0,0
14.11.2017 22:00:00 4,4 -1,2 4 2 14 8 NNO 1024,0 20 0 0,0
14.11.2017 21:00:00 5,2 -1,0 4 2 10 6 N 1023,7 20 0 0,0
14.11.2017 20:00:00 6,9 -0,5 6 3 12 7 N 1023,0 20 0 0,0
14.11.2017 19:00:00 8,5 -1,0 7 4 10 6 N 1022,2 20 0 -
14.11.2017 18:00:00 10,8 -1,7 4 2 16 8 ONO 1021,5 20 32 0,0
14.11.2017 17:00:00 12,5 -2,2 10 5 22 12 ONO 1020,7 20 58 0,0
14.11.2017 16:00:00 12,7 -2,7 13 7 25 13 ONO 1021,0 20 60 0,0
14.11.2017 15:00:00 12,3 -1,7 8 5 22 12 O 1021,6 20 60 0,0
14.11.2017 14:00:00 11,0 -0,3 10 5 23 12 ONO 1022,8 20 60 0,0
14.11.2017 13:00:00 9,4 -1,0 8 5 24 13 ONO 1024,2 20 60 -
14.11.2017 12:00:00 7,9 0,2 8 4 20 11 NO 1025,4 20 60 0,0
14.11.2017 11:00:00 5,4 0,2 10 5 20 11 NNO 1026,4 20 60 0,0
14.11.2017 10:00:00 2,5 -1,0 6 4 18 10 NNO 1027,6 20 46 0,0
14.11.2017 09:00:00 -0,2 -2,2 6 3 18 10 N 1027,9 20 0 0,0
14.11.2017 08:00:00 -0,7 -2,5 4 2 11 6 N 1027,9 17 0 0,0
14.11.2017 07:00:00 -1,5 -3,0 6 3 10 5 NNW 1028,0 20 0 -
14.11.2017 06:00:00 -0,8 -2,5 3 1 9 5 NO 1028,0 20 0 0,0
14.11.2017 05:00:00 -0,3 -1,7 4 2 10 6 WZW 1028,2 20 0 0,0
14.11.2017 04:00:00 -0,6 -2,2 4 2 8 4 N 1028,4 20 0 0,0
14.11.2017 03:00:00 0,4 -1,4 1 1 6 3 WNW 1028,5 20 0 0,0
14.11.2017 02:00:00 1,2 -1,0 0 0 6 3 N 1028,5 20 0 0,0
14.11.2017 01:00:00 1,9 -0,3 2 1 7 4 ZW 1028,3 20 0 -
14.11.2017 00:00:00 1,7 -1,0 3 2 6 4 N 1028,4 20 0 0,0
13.11.2017 23:00:00 2,5 -0,7 3 2 10 5 N 1028,1 20 0 0,0
13.11.2017 22:00:00 3,6 -0,7 5 3 14 8 NO 1027,7 20 0 0,0
13.11.2017 21:00:00 4,7 -0,5 5 3 12 6 ONO 1027,1 20 0 0,0
13.11.2017 20:00:00 5,6 -0,3 4 2 13 7 ONO 1026,6 20 0 0,0
13.11.2017 19:00:00 7,2 -0,3 3 2 11 6 O 1025,2 20 0 -
13.11.2017 18:00:00 9,5 0,6 7 4 20 11 O 1023,7 20 34 0,0

tt = temperatuur
td = dauwpunt
ff = windsnelheid
fx = windstoten
dd = windrichting
ppp = luchtdruk
vv = zicht
sd = Zonneschijnduur
rr = neerslag

Weerstations in de omgeving